Weather History for Fergus Falls, MN

Change the Weather History Date:

Sunday, December 9, 2012

  Actual Average Record
Temperature  
Mean Temperature 10 °F -  
Max Temperature 28 °F 23 °F 48 °F (1990)
Min Temperature -7 °F 5 °F -24 °F (1977)
Degree Days  
Heating Degree Days 54    
Moisture  
Dew Point 10 °F    
Average Humidity 84    
Maximum Humidity 100    
Minimum Humidity 67    
Precipitation  
Precipitation 0.01 in - - ()
Sea Level Pressure  
Sea Level Pressure 30.05 in    
Wind  
Wind Speed 13 mph (NNE)    
Max Wind Speed 23 mph    
Max Gust Speed 33 mph    
Visibility 6 miles    
Events Snow    
Averages and records for this station are not official NWS values.
T = Trace of Precipitation, MM = Missing Value Source: NWS Daily Summary

Daily Weather History Graph

Daily Weather History Graph

Search for Another Location

Airport:

Trip Planner

Search our weather history database for the weather conditions in past years. The results will help you decide how hot, cold, wet, or windy it might be!

Date:

Astronomy

Dec. 09, 2012 Rise Set
Actual Time 7:56 AM CST 4:38 PM CST
Civil Twilight 7:21 AM CST 5:12 PM CST
Nautical Twilight 6:43 AM CST 5:50 PM CST
Astronomical Twilight 6:07 AM CST 6:27 PM CST
Moon 3:19 AM CST (12/9) 1:54 PM CST (12/9)
Length of Visible Light 9h 51m
Length of Day
8h 41m
Waning Crescent, 18% of the Moon is Illuminated
Dec 9
Waning Crescent
Dec 13
New
Dec 19
First Quarter
Dec 28
Full
Jan 4
Last Quarter

Hourly Weather History & Observations

Time (CST) Temp. Windchill Dew Point Humidity Pressure Visibility Wind Dir Wind Speed Gust Speed Precip Events Conditions
12:13 AM 26.6 °F 18.2 °F 26.6 °F 100% 29.95 in 1.8 mi East 8.1 mph - N/A Snow Light Snow
12:33 AM 26.6 °F 21.2 °F 26.6 °F 100% 29.95 in 1.8 mi East 4.6 mph - N/A Snow Light Snow
12:54 AM 26.6 °F 17.5 °F 26.6 °F 100% 29.94 in 1.5 mi East 9.2 mph - N/A Snow Light Snow
1:13 AM 26.6 °F 16.2 °F 26.6 °F 100% 29.93 in 2.0 mi ENE 11.5 mph 16.1 mph N/A Snow Light Snow
1:33 AM 26.6 °F 16.2 °F 26.6 °F 100% 29.93 in 1.8 mi ENE 11.5 mph - N/A Snow Light Snow
1:54 AM 26.6 °F 16.8 °F 26.6 °F 100% 29.93 in 2.0 mi ENE 10.4 mph 16.1 mph N/A Snow Light Snow
2:13 AM 26.6 °F 15.7 °F 26.6 °F 100% 29.94 in 2.5 mi ENE 12.7 mph - N/A Snow Light Snow
2:54 AM 28.4 °F 18.5 °F 26.6 °F 93% 29.94 in 1.5 mi ENE 11.5 mph 17.3 mph N/A Snow Light Snow
3:13 AM 28.4 °F 19.1 °F 26.6 °F 93% 29.94 in 1.2 mi ENE 10.4 mph - N/A Snow Light Snow
3:33 AM 28.4 °F 18.5 °F 26.6 °F 93% 29.93 in 1.2 mi ENE 11.5 mph 16.1 mph 0.01 in Snow Light Snow
3:54 AM 26.6 °F 16.2 °F 26.6 °F 100% 29.93 in 1.5 mi ENE 11.5 mph 18.4 mph 0.01 in Snow Light Snow
4:13 AM 26.6 °F 16.8 °F 26.6 °F 100% 29.93 in 1.5 mi ENE 10.4 mph 16.1 mph N/A Snow Light Snow
4:33 AM 26.6 °F 16.2 °F 26.6 °F 100% 29.94 in 1.8 mi ENE 11.5 mph - N/A Snow Light Snow
4:53 AM 26.6 °F 16.8 °F 26.6 °F 100% 29.95 in 1.5 mi NE 10.4 mph - N/A Snow Light Snow
5:13 AM 26.6 °F 16.8 °F 26.6 °F 100% 29.95 in 1.5 mi NE 10.4 mph - N/A Snow Light Snow
5:33 AM 26.6 °F 15.7 °F 26.6 °F 100% 29.95 in 1.2 mi NE 12.7 mph 19.6 mph N/A Snow Light Snow
5:53 AM 28.4 °F 19.1 °F 26.6 °F 93% 29.95 in 1.5 mi NE 10.4 mph - N/A Snow Light Snow
6:13 AM 26.6 °F 15.2 °F 26.6 °F 100% 29.96 in 1.0 mi NE 13.8 mph 19.6 mph N/A Snow Light Snow
6:33 AM 26.6 °F 14.7 °F 26.6 °F 100% 29.96 in 1.8 mi NE 15.0 mph 19.6 mph N/A Snow Light Snow
6:53 AM 26.6 °F 15.2 °F 24.8 °F 93% 29.97 in 4.0 mi NE 13.8 mph 20.7 mph N/A Snow Light Snow
7:13 AM 26.6 °F 16.2 °F 24.8 °F 93% 29.98 in 5.0 mi NE 11.5 mph 18.4 mph N/A Snow Light Snow
7:34 AM 26.6 °F 15.7 °F 23.0 °F 86% 29.99 in 7.0 mi NNE 12.7 mph 18.4 mph N/A Snow Light Snow
7:53 AM 24.8 °F 12.4 °F 21.2 °F 86% 29.99 in 4.0 mi NNE 15.0 mph 21.9 mph N/A Snow Light Snow
8:13 AM 23.0 °F 11.1 °F 19.4 °F 86% 30.00 in 3.0 mi NNE 12.7 mph 20.7 mph N/A Snow Light Snow
8:34 AM 21.2 °F 8.9 °F 19.4 °F 93% 30.01 in 3.0 mi NNE 12.7 mph 23.0 mph N/A Snow Light Snow
8:53 AM 21.2 °F 8.3 °F 17.6 °F 86% 30.01 in 4.0 mi NNE 13.8 mph 21.9 mph N/A Snow Light Snow
9:13 AM 19.4 °F 5.0 °F 15.8 °F 86% 30.03 in 7.0 mi NNE 16.1 mph 23.0 mph N/A Snow Light Snow
9:33 AM 19.4 °F 5.5 °F 15.8 °F 86% 30.03 in 3.0 mi NNE 15.0 mph 23.0 mph N/A Snow Light Snow
9:53 AM 19.4 °F 5.0 °F 15.8 °F 86% 30.04 in 4.0 mi NNE 16.1 mph 20.7 mph N/A Snow Light Snow
10:13 AM 19.4 °F 5.5 °F 14.0 °F 80% 30.05 in 10.0 mi NNE 15.0 mph 20.7 mph N/A Snow Light Snow
10:33 AM 17.6 °F 3.2 °F 12.2 °F 79% 30.06 in 10.0 mi North 15.0 mph - N/A   Mostly Cloudy
10:53 AM 17.6 °F 2.7 °F 12.2 °F 79% 30.06 in 10.0 mi North 16.1 mph - N/A   Scattered Clouds
11:13 AM 15.8 °F 2.1 °F 10.4 °F 79% 30.06 in 10.0 mi North 12.7 mph - N/A   Mostly Cloudy
11:33 AM 15.8 °F 0.3 °F 10.4 °F 79% 30.06 in 10.0 mi North 16.1 mph - N/A   Overcast
11:53 AM 15.8 °F 0.3 °F 8.6 °F 73% 30.06 in 10.0 mi North 16.1 mph 23.0 mph N/A   Mostly Cloudy
12:13 PM 14.0 °F -2.5 °F 8.6 °F 79% 30.06 in 7.0 mi North 17.3 mph 24.2 mph N/A   Mostly Cloudy
12:33 PM 12.2 °F -3.7 °F 6.8 °F 79% 30.06 in 10.0 mi North 15.0 mph 21.9 mph N/A   Overcast
12:53 PM 12.2 °F -3.1 °F 6.8 °F 79% 30.06 in 10.0 mi North 13.8 mph 19.6 mph N/A   Overcast
1:13 PM 12.2 °F -5.3 °F 6.8 °F 79% 30.06 in 7.0 mi North 18.4 mph 27.6 mph N/A   Overcast
1:33 PM 12.2 °F -5.3 °F 6.8 °F 79% 30.05 in 4.0 mi North 18.4 mph 26.5 mph N/A   Haze
1:53 PM 12.2 °F -4.8 °F 6.8 °F 79% 30.05 in 5.0 mi North 17.3 mph 32.2 mph N/A   Haze
2:13 PM 12.2 °F -4.8 °F 6.8 °F 79% 30.05 in 4.0 mi North 17.3 mph 26.5 mph N/A   Haze
2:33 PM 12.2 °F -4.8 °F 6.8 °F 79% 30.06 in 2.5 mi North 17.3 mph 32.2 mph N/A   Haze
2:53 PM 12.2 °F -5.8 °F 5.0 °F 73% 30.06 in 4.0 mi North 19.6 mph 31.1 mph N/A   Haze
3:13 PM 12.2 °F -5.3 °F 5.0 °F 73% 30.07 in 5.0 mi North 18.4 mph 26.5 mph N/A   Haze
3:33 PM 10.4 °F -7.7 °F 3.2 °F 73% 30.08 in 7.0 mi North 18.4 mph 27.6 mph N/A   Clear
3:53 PM 10.4 °F -7.2 °F 1.4 °F 67% 30.09 in 5.0 mi North 17.3 mph 26.5 mph N/A   Haze
4:13 PM 8.6 °F -11.4 °F -0.4 °F 67% 30.10 in 10.0 mi North 21.9 mph 33.4 mph N/A   Clear
4:33 PM 6.8 °F -13.4 °F -0.4 °F 72% 30.11 in 10.0 mi North 20.7 mph 26.5 mph N/A   Clear
4:53 PM 6.8 °F -11.8 °F -0.4 °F 72% 30.12 in 10.0 mi North 17.3 mph 28.8 mph N/A   Clear
5:13 PM 3.2 °F -18.1 °F -2.2 °F 78% 30.12 in 10.0 mi North 20.7 mph 29.9 mph N/A   Clear
5:33 PM 3.2 °F -19.0 °F -2.2 °F 78% 30.13 in 10.0 mi NNW 23.0 mph 29.9 mph N/A   Clear
5:53 PM 1.4 °F -21.0 °F -4.0 °F 78% 30.13 in 10.0 mi NNW 21.9 mph 26.5 mph N/A   Clear
6:13 PM 1.4 °F -21.4 °F -5.8 °F 72% 30.15 in 10.0 mi North 23.0 mph 29.9 mph N/A   Scattered Clouds
6:33 PM -0.4 °F -22.8 °F -5.8 °F 78% 30.15 in 10.0 mi North 20.7 mph 26.5 mph N/A   Scattered Clouds
6:53 PM -0.4 °F -23.3 °F -5.8 °F 78% 30.16 in 10.0 mi North 21.9 mph 29.9 mph N/A   Mostly Cloudy
7:13 PM -0.4 °F -23.3 °F -7.6 °F 72% 30.16 in 10.0 mi North 21.9 mph 28.8 mph N/A   Overcast
7:33 PM -0.4 °F -22.8 °F -7.6 °F 72% 30.17 in 10.0 mi North 20.7 mph 28.8 mph N/A   Overcast
7:53 PM -0.4 °F -23.8 °F -7.6 °F 72% 30.17 in 10.0 mi NNW 23.0 mph 31.1 mph N/A   Overcast
8:13 PM -2.2 °F -24.7 °F -7.6 °F 78% 30.17 in 10.0 mi NNW 19.6 mph 25.3 mph N/A   Overcast
8:33 PM -2.2 °F -21.5 °F -7.6 °F 78% 30.17 in 10.0 mi North 13.8 mph 24.2 mph N/A   Overcast
8:53 PM -2.2 °F -22.9 °F -7.6 °F 78% 30.17 in 10.0 mi North 16.1 mph 24.2 mph N/A   Overcast
9:14 PM -4.0 °F -23.0 °F -9.4 °F 78% 30.16 in 10.0 mi North 12.7 mph 20.7 mph N/A   Overcast
9:33 PM -4.0 °F -22.1 °F -9.4 °F 78% 30.16 in 10.0 mi North 11.5 mph 17.3 mph N/A   Mostly Cloudy
9:53 PM -5.8 °F -24.4 °F -9.4 °F 84% 30.15 in 10.0 mi North 11.5 mph - N/A   Scattered Clouds
10:33 PM -5.8 °F -21.2 °F -11.2 °F 77% 30.13 in 10.0 mi NNW 8.1 mph - N/A   Clear
10:53 PM -5.8 °F -23.4 °F -11.2 °F 77% 30.13 in 10.0 mi NNW 10.4 mph - N/A   Clear
11:13 PM -7.6 °F -26.6 °F -11.2 °F 84% 30.13 in 10.0 mi NNW 11.5 mph - N/A   Clear
11:33 PM -7.6 °F -26.6 °F -11.2 °F 84% 30.14 in 10.0 mi NW 11.5 mph - N/A   Clear
11:53 PM -7.6 °F -26.6 °F -13.0 °F 77% 30.14 in 10.0 mi NW 11.5 mph - N/A   Clear